Location: Saint Johns (historical)
(40.6459°N, 82.3477°W)
Time: 15:00:17
(UTC+00:00)

Daily predictions for brighter satellites

Satellite Brightness Start Highest point End
(mag) Time Altitude Azimuth Time Altitude Azimuth Time Altitude Azimuth
Meteor PRIRODA 4.5 12:01:41 10° N 12:04:49 28° WNW 12:07:57 10° SW
CZ-4B R/B 3.3 12:02:30 10° N 12:05:42 31° WNW 12:08:54 10° SW
Cosmos 1428 Rocket 4.5 12:00:44 10° SSW 12:06:50 70° W 12:12:57 10° N
AQUARIUS 4.1 12:02:38 10° N 12:07:08 80° WNW 12:11:37 10° SSW
Cosmos 1092 Rocket 4.1 12:01:16 10° SSW 12:07:24 60° W 12:13:40 10° N
Meteor 1-19 Rocket 4.2 12:02:48 10° N 12:08:24 90° W 12:13:49 10° S
Cosmos 1805 Rocket 3.8 12:05:31 10° SSW 12:09:45 49° W 12:14:00 10° N
H-2A R/B 2.3 12:05:44 10° S 12:09:53 52° W 12:14:10 10° NNW
Cosmos 1538 Rocket 4.1 12:04:54 10° NNW 12:10:04 62° WSW 12:15:09 10° S
SMAP 3.1 12:05:34 10° N 12:10:11 64° WNW 12:14:47 10° SSW
CZ-4B DEB 4.5 12:05:03 10° NNE 12:10:32 77° ESE 12:15:58 10° S
SL-24 R/B - RUBIN 2 4.0 22:27:17 10° NNW 22:31:28 37° NE 22:35:29 10° ESE
Cosmos 540 Rocket 3.5 22:27:26 10° SSW 22:32:32 88° ESE 22:37:41 10° NNE
Cosmos 2360 4.2 22:28:34 10° NNW 22:34:19 76° ENE 22:40:01 10° SSE
USA 234 3.7 22:29:20 10° E 22:35:22 41° NNE 22:41:25 10° NW
Meteor 1-20 Rocket 4.4 22:35:32 10° N 22:41:24 86° W 22:47:15 10° S
Meteor PRIRODA 3.9 22:38:20 10° S 22:41:57 72° W 22:45:34 10° NNW
Cosmos 921 Rocket 4.4 22:42:27 10° SE 22:45:26 19° E 22:48:25 10° NE
Cosmos 1933 3.8 22:45:00 10° SSW 22:49:01 64° W 22:53:01 10° N
Cosmos 1812 3.1 22:45:53 10° SSE 22:49:31 42° E 22:53:10 10° NNE
CZ-4B R/B 3.6 22:48:53 10° S 22:52:51 58° W 22:56:40 10° NNW
CZ-2C R/B 3.0 22:49:37 10° SW 22:53:07 24° SSE 22:56:31 10° ESE
Cosmos 1814 Rocket 4.0 22:50:01 10° S 22:55:09 64° ESE 23:00:18 10° NNE
Meteor 1-26 Rocket 4.4 22:49:48 10° S 22:55:46 86° E 23:01:50 10° N
COSMO-SKYMED 1 3.5 22:52:24 10° NE 22:56:07 27° E 22:59:49 10° SSE
Cosmos 1570 Rocket 4.1 22:51:47 10° S 22:56:54 57° ESE 23:02:01 10° NNE
COSMOS 2455 3.2 22:52:48 10° SW 22:58:46 67° WNW 23:04:49 10° NNE
Cosmos 1633 Rocket 3.6 22:55:46 10° N 22:59:50 36° ENE 23:03:53 10° SE
Cosmos 1151 Rocket 3.1 22:57:42 10° S 23:01:55 56° E 23:06:12 10° NNE
X-37B 1.9 22:59:34 10° SSW 23:01:56 23° SE 23:03:24 16° ESE
Cosmos 1092 Rocket 4.3 22:57:24 10° N 23:03:45 75° W 23:10:02 10° S
Cosmos 1697 Rocket 3.5 22:58:26 10° NNW 23:03:56 57° WSW 23:09:23 10° S
Cosmos 2322 Rocket 3.6 23:00:41 10° N 23:04:24 17° NE 23:05:58 16° ENE
AQUARIUS 4.1 23:00:47 10° SSE 23:05:17 87° ENE 23:09:47 10° NNW
Cosmos 1980 Rocket 2.1 23:03:45 10° NNW 23:09:26 81° ENE 23:15:03 10° SSE
SMAP 3.5 23:08:05 10° S 23:12:41 67° WSW 23:17:20 10° NNW
CORIOLIS 4.3 23:09:57 10° S 23:15:21 78° WSW 23:20:48 10° NNW
Landsat 5 4.2 23:14:49 20° NE 23:16:41 29° E 23:20:07 10° SSE
Cosmos 2369 4.1 23:11:10 10° NNW 23:16:53 70° WSW 23:22:31 10° SSE
Cosmos 1818 4.0 23:12:30 10° NNW 23:17:40 40° NE 23:22:46 10° ESE
ISS -3.8 23:14:52 10° NW 23:18:15 72° NE 23:20:29 20° ESE
CZ-4C R/B 3.0 23:12:59 10° NNW 23:20:22 69° NE 23:28:54 10° SE
Cosmos 2142 Rocket 4.5 23:16:52 10° S 23:23:00 90° ESE 23:29:16 10° N
Cosmos 2082 Rocket 2.9 23:18:14 10° SW 23:23:46 52° WNW 23:29:19 10° NNE
Cosmos 1939 Rocket 4.4 23:20:10 10° SSW 23:24:01 39° W 23:27:52 10° NNW
SL-16 R/B 2.9 23:19:08 10° N 23:24:06 30° ENE 23:27:08 19° ESE
Meteor 1-5 Rocket 4.2 23:18:55 10° N 23:24:54 75° E 23:30:44 10° SSE
Okean O Rocket 1.9 23:21:09 10° SE 23:25:20 42° ENE 23:29:32 10° N
Cosmos 2279 Rocket 4.0 23:19:34 10° S 23:25:48 89° E 23:32:02 10° N
Cosmos 1328 Rocket 3.5 23:22:02 10° S 23:26:27 75° E 23:30:53 10° NNE
Cosmos 1666 Rocket 3.5 23:23:20 10° N 23:27:47 87° W 23:32:10 10° S
ARGOS 3.2 23:25:57 10° SSE 23:31:12 54° ENE 23:36:27 10° N
Cosmos 1470 Rocket 3.8 23:26:55 10° N 23:31:14 47° E 23:35:33 10° SSE
Cosmos 44 Rocket 3.4 23:27:01 10° NNW 23:31:46 47° NE 23:34:46 20° ESE
Cosmos 2266 Rocket 4.2 23:27:16 10° N 23:33:27 48° ENE 23:39:36 10° SSE
Cosmos 2208 Rocket 4.1 23:28:28 10° SSW 23:33:52 84° WNW 23:39:21 10° NNE
Meteor 1-14 Rocket 4.5 23:30:34 10° NNW 23:36:27 79° W 23:42:23 10° S
Aureole 3 Rocket 4.0 23:32:50 10° SSE 23:36:34 32° E 23:37:00 31° ENE
CZ-2D R/B 3.8 23:33:12 10° S 23:36:59 60° W 23:40:47 10° NNW
MOS 1-B 4.4 23:32:20 10° SSE 23:38:06 82° WSW 23:43:55 10° NNW
Cosmos 1867 4.1 23:34:19 10° S 23:39:19 39° ESE 23:40:49 32° ENE
Cosmos 2278 3.8 23:34:21 10° NNW 23:40:03 81° WSW 23:45:43 10° SSE
Cosmos 2150 Rocket 4.2 23:35:51 10° N 23:40:52 47° ENE 23:45:55 10° SE
Meteor 2-15 4.3 23:35:09 10° S 23:41:14 74° E 23:47:19 10° NNE
H-2A R/B 2.2 23:36:12 10° S 23:41:21 73° WSW 23:46:25 10° NNW
ATLAS CENTAUR R/B 4.2 23:35:26 10° W 23:42:37 26° NW 23:45:46 13° N
SKYMED 2 3.5 23:40:10 11° NNE 23:44:18 86° WNW 23:48:38 10° SSW
USA 267 4.2 23:41:28 16° NNE 23:46:09 39° NNW 23:52:06 10° W
USA 32 4.2 23:43:50 10° SSE 23:48:49 49° E 23:51:15 28° NNE
Cosmos 1125 Rocket 3.5 23:47:10 10° N 23:52:20 55° ENE 23:56:49 14° SE
